Weather History for Leeds And Bradford, United Kingdom

Change the Weather History Date:

Sunday, March 10, 2013

  Actual Average Record
Temperature  
Mean Temperature 28 °F -  
Max Temperature 32 °F 47 °F 55 °F (1997)
Min Temperature 24 °F 36 °F 24 °F (2013)
Degree Days  
Heating Degree Days 37    
Moisture  
Dew Point 29 °F    
Average Humidity 93    
Maximum Humidity 100    
Minimum Humidity 49    
Precipitation  
Precipitation 0.16 in - - ()
Sea Level Pressure  
Sea Level Pressure 29.83 in    
Wind  
Wind Speed 13 mph ()    
Max Wind Speed 23 mph    
Max Gust Speed 33 mph    
Visibility 5.1 miles    
Events Rain , Snow    
Averages and records for this station are not official NWS values.
T = Trace of Precipitation, MM = Missing Value Source: Averaged Metar Reports

Daily Weather History Graph

Daily Weather History Graph

Search for Another Location

Airport:

Trip Planner

Search our weather history database for the weather conditions in past years. The results will help you decide how hot, cold, wet, or windy it might be!

Date:

Astronomy

Mar. 10, 2013 Rise Set
Actual Time 6:33 AM GMT 6:01 PM GMT
Civil Twilight 5:58 AM GMT 6:36 PM GMT
Nautical Twilight 5:17 AM GMT 7:17 PM GMT
Astronomical Twilight 4:35 AM GMT 7:59 PM GMT
Moon 5:33 AM GMT (3/10) 4:49 PM GMT (3/10)
Length of Visible Light 12h 38m
Length of Day
11h 28m
Waning Crescent, 2% of the Moon is Illuminated
Mar 10
Waning Crescent
Mar 11
New
Mar 19
First Quarter
Mar 27
Full
Apr 3
Last Quarter

Hourly Weather History & Observations

Time (GMT) Temp. Windchill Dew Point Humidity Pressure Visibility Wind Dir Wind Speed Gust Speed Precip Events Conditions
12:20 AM 32.0 °F 23.0 °F 32.0 °F 100% 29.77 in 1.6 mi NE 11.5 mph - N/A   Mostly Cloudy
12:50 AM 32.0 °F 22.5 °F 32.0 °F 100% 29.77 in 0.9 mi NE 12.7 mph - N/A   Mostly Cloudy
1:20 AM 32.0 °F 23.6 °F 32.0 °F 100% 29.77 in 0.6 mi NE 10.4 mph - N/A   Mostly Cloudy
1:50 AM 32.0 °F 23.0 °F 32.0 °F 100% 29.77 in 0.6 mi NE 11.5 mph - N/A Snow Light Snow
2:20 AM 32.0 °F 23.6 °F 32.0 °F 100% 29.77 in 0.6 mi NE 10.4 mph - N/A Snow Light Snow
2:50 AM 32 °F - 32 °F 100%  in - NE 12.7 mph - -  
2:50 AM 32.0 °F 23.0 °F 32.0 °F 100% 29.74 in 0.6 mi NE 11.5 mph - N/A Snow Light Snow
3:20 AM 32.0 °F 23.0 °F 32.0 °F 100% 29.74 in 0.6 mi NE 11.5 mph - N/A Rain Light Rain
3:50 AM 32.0 °F 23.0 °F 32.0 °F 100% 29.74 in 1.9 mi NE 11.5 mph - N/A   Mostly Cloudy
4:20 AM 32.0 °F 22.5 °F 32.0 °F 100% 29.74 in 5.0 mi NE 12.7 mph - N/A Snow Light Snow
4:50 AM 32.0 °F 22.1 °F 32.0 °F 100% 29.74 in 5.0 mi ENE 13.8 mph - N/A Snow Light Snow
5:20 AM 32.0 °F 22.5 °F 32.0 °F 100% 29.77 in 5.0 mi ENE 12.7 mph - N/A Snow Light Snow
5:50 AM 32 °F - 32 °F 99%  in - ENE 13.8 mph - -  
5:50 AM 32.0 °F 22.5 °F 32.0 °F 100% 29.77 in 5.0 mi ENE 12.7 mph - N/A Snow Light Snow Showers
6:20 AM 32.0 °F 22.5 °F 32.0 °F 100% 29.77 in 5.0 mi ENE 12.7 mph - N/A Snow Light Snow Showers
6:50 AM 32.0 °F 23.0 °F 32.0 °F 100% 29.77 in 6.2 mi NE 11.5 mph - N/A   Mostly Cloudy
7:20 AM 32.0 °F 22.5 °F 28.4 °F 87% 29.80 in 6.2 mi ENE 12.7 mph - N/A   Mostly Cloudy
7:50 AM 32.0 °F 22.5 °F 26.6 °F 80% 29.80 in 6.2 mi NE 12.7 mph - N/A   Mostly Cloudy
8:20 AM 32.0 °F 22.1 °F 26.6 °F 80% 29.80 in 6.2 mi ENE 13.8 mph - N/A   Mostly Cloudy
8:50 AM 30 °F - 30 °F 100%  in - ENE 12.7 mph - -  
8:50 AM 32.0 °F 22.1 °F 28.4 °F 87% 29.80 in 6.2 mi ENE 13.8 mph - N/A Snow Light Snow Showers
9:20 AM 32.0 °F 21.6 °F 28.4 °F 87% 29.80 in 6.2 mi ENE 15.0 mph - N/A Snow Light Snow
9:50 AM 32.0 °F 22.5 °F 28.4 °F 87% 29.83 in 6.2 mi ENE 12.7 mph - N/A Snow Light Snow
10:20 AM 32.0 °F 21.6 °F 28.4 °F 87% 29.83 in 6.2 mi ENE 15.0 mph - N/A   Mostly Cloudy
10:50 AM 32.0 °F 20.1 °F 26.6 °F 80% 29.83 in 6.2 mi East 19.6 mph - N/A   Scattered Clouds
11:20 AM 32.0 °F 21.6 °F 28.4 °F 87% 29.83 in 6.2 mi ENE 15.0 mph - N/A Snow Light Snow
11:50 AM 31 °F - 22 °F 58%  in - East 21.9 mph - -  
11:50 AM 33.8 °F 22.8 °F 28.4 °F 81% 29.83 in 6.2 mi East 18.4 mph - N/A   Scattered Clouds
12:20 PM 33.8 °F 22.8 °F 30.2 °F 87% 29.86 in 6.2 mi ENE 18.4 mph 29.9 mph N/A   Scattered Clouds
12:50 PM 33.8 °F 22.2 °F 33.8 °F 100% 29.86 in 6.2 mi ENE 20.7 mph - N/A   Scattered Clouds
1:20 PM 33.8 °F 22.5 °F 33.8 °F 100% 29.86 in 6.2 mi East 19.6 mph 33.4 mph N/A   Scattered Clouds
1:50 PM 33.8 °F 22.5 °F 33.8 °F 100% 29.86 in 6.2 mi ENE 19.6 mph - N/A   Scattered Clouds
2:20 PM 33.8 °F 22.8 °F 33.8 °F 100% 29.86 in 6.2 mi ENE 18.4 mph 29.9 mph N/A   Scattered Clouds
2:50 PM 31 °F - 19 °F 49%  in - ENE 23.0 mph - -  
2:50 PM - - - N/A% 29.86 in 6.2 mi ENE 21.9 mph - N/A   Scattered Clouds
3:20 PM 32.0 °F 20.1 °F 32.0 °F 100% 29.86 in 6.2 mi ENE 19.6 mph - N/A   Scattered Clouds
3:50 PM 32.0 °F 20.5 °F 32.0 °F 100% 29.86 in 6.2 mi ENE 18.4 mph - N/A Snow Light Snow
4:20 PM - - - N/A% 29.86 in 6.2 mi ENE 19.6 mph 31.1 mph N/A   Unknown
4:50 PM 30.2 °F 18.5 °F 30.2 °F 100% 29.86 in 6.2 mi NE 17.3 mph 29.9 mph N/A   Scattered Clouds
5:20 PM - - - N/A% 29.86 in 6.2 mi ENE 20.7 mph - N/A   Scattered Clouds
5:50 PM 28 °F - 20 °F 63%  in - ENE 19.6 mph - -  
5:50 PM 28.4 °F 16.6 °F 28.4 °F 100% 29.86 in 6.2 mi NE 16.1 mph - N/A   Scattered Clouds
6:20 PM 28.4 °F 16.6 °F 28.4 °F 100% 29.89 in 6.2 mi NE 16.1 mph 27.6 mph N/A   Scattered Clouds
6:50 PM - - - N/A% 29.89 in 5.0 mi ENE 18.4 mph - N/A   Unknown
7:20 PM 26.6 °F 15.7 °F 26.6 °F 100% 29.89 in 6.2 mi NE 12.7 mph - N/A   Scattered Clouds
7:50 PM 26.6 °F 15.7 °F 26.6 °F 100% 29.89 in 6.2 mi NE 12.7 mph - N/A   Scattered Clouds
8:20 PM 26.6 °F 14.3 °F 26.6 °F 100% 29.89 in 6.2 mi ENE 16.1 mph - N/A   Scattered Clouds
8:50 PM 27 °F - 24 °F 83%  in - NE 16.1 mph - -  
8:50 PM 26.6 °F 13.8 °F 26.6 °F 100% 29.89 in 6.2 mi ENE 17.3 mph 29.9 mph N/A   Scattered Clouds
9:20 PM 26.6 °F 14.7 °F 24.8 °F 93% 29.89 in 6.2 mi ENE 15.0 mph - N/A   Partly Cloudy
9:50 PM 26.6 °F 13.8 °F 24.8 °F 93% 29.92 in 6.2 mi ENE 17.3 mph - N/A   Partly Cloudy
10:20 PM 24.8 °F 12.9 °F 24.8 °F 100% 29.92 in 6.2 mi ENE 13.8 mph - N/A   Partly Cloudy
10:50 PM 26.6 °F 15.7 °F 24.8 °F 93% 29.92 in 6.2 mi NE 12.7 mph - N/A   Partly Cloudy
11:20 PM - - - N/A% 29.92 in 6.2 mi NE 11.5 mph - N/A   Partly Cloudy
11:50 PM 26 °F - 23 °F 85%  in - ENE 16.1 mph - -